Regional Weather Roundup
Issued by NWS San Diego, CA

Current Version | Previous Version | Text Only | Print | Product List | Glossary On
Versions: 1 2 3 4 5 6 7 8 9 10 11 12 13 14 15 16 17 18 19 20 21 22 23 24 25 26 27 28 29 30 31 32 33 34 35 36 37 38 39 40 41 42 43 44 45 46 47 48 49 50
000
ASUS46 KSGX 241410
RWRSGX

SAN DIEGO HOURLY WEATHER ROUNDUP
NATIONAL WEATHER SERVICE SAN DIEGO CA
700 AM PDT WED AUG 24 2016

NOTE: "FAIR" INDICATES FEW OR NO CLOUDS BELOW 12,000 FEET WITH NO
SIGNIFICANT WEATHER AND/OR OBSTRUCTIONS TO VISIBILITY.

CAZ042-043-060-061-PZZ750-775-241500-

GREATER SAN DIEGO AREA

CITY           SKY/WX    TMP DP  RH WIND       PRES   REMARKS
LINDBERGH FLD  MOCLDY    67  61  81 CALM      30.04S
POINT LOMA       N/A     66  61  84 NW3         N/A
NATIONAL CITY    N/A    N/A N/A N/A CALM      30.04S
CHULA VISTA      N/A     67  64  90 W2        29.96R
IMPERIAL BEACH CLOUDY    70  61  73 CALM      30.04R
BROWN FIELD    CLOUDY    66  62  87 CALM      30.04R
MIRAMAR MCAS   MOCLDY    68  60  75 CALM      30.04R
MONTGOMERY FLD CLOUDY    67  61  81 CALM      30.04R

$$

NORTH SAN DIEGO COUNTY

CITY           SKY/WX    TMP DP  RH WIND       PRES   REMARKS
CAMP PENDLETON CLOUDY    61  61 100 N5        30.03R FOG
OCEANSIDE AP   CLOUDY    68  61  78 CALM      30.02S
OCEANSIDE HBR    N/A     67  64  89 CALM      30.06R
VISTA            N/A     65  60  83 CALM      30.01R
CARLSBAD       CLOUDY    67  63  87 VRB3      30.03R
DEL MAR          N/A     65  63  92 CALM      30.05S
LA JOLLA SCRIP   N/A     67  63  88 CALM      30.02S
FALLBROOK        N/A     64  64 100 CALM      30.03R
ESCONDIDO        N/A     65  62  90 CALM      30.05R
SAN MARCOS       N/A     64  57  80 CALM      30.07R
POWAY            N/A     64  61  88 CALM      30.04R

$$

EAST SAN DIEGO COUNTY

CITY           SKY/WX    TMP DP  RH WIND       PRES   REMARKS
RAMONA         CLEAR     57  50  77 CALM      30.06R
SANTEE LAKES     N/A     65  62  90 CALM      30.02R
LA MESA          N/A     64  62  93 CALM      29.96R
JAMUL            N/A     62  60  94 CALM      30.03R
DESCANSO N       N/A     61  43  50 N5        29.95R
MT. LAGUNA OBS   N/A     67  34  29 NW2       29.84R
CAMPO            N/A     57  44  62 NE7       30.08R

$$

ORANGE COUNTY AND THE LOS ANGELES BASIN

CITY           SKY/WX    TMP DP  RH WIND       PRES   REMARKS
JOHN WAYNE AP  MOCLDY    67  62  84 SE3       30.03R
LAKE FOREST FR   N/A     60  55  82 CALM      29.93R
HUNTINGTON BCH   N/A     63  62  97 CALM      30.05R
LOS ALAMITOS   CLEAR     62  59  88 CALM      30.03R
FULLERTON      CLEAR     67  58  72 CALM      30.02R
LONG BEACH     CLEAR     65  58  78 E3        30.03R
L.A. AP        PTCLDY    66  59  78 CALM      30.03R
L.A. DOWNTOWN  CLEAR     65  58  78 CALM      30.02S

$$

THE INLAND EMPIRE

CITY           SKY/WX    TMP DP  RH WIND       PRES   REMARKS
CORONA         CLEAR     61  58  90 MISG      30.04R
CHINO          CLEAR     64  58  80 CALM      30.05R
ONTARIO        PTCLDY    66  56  70 CALM      30.04R
SAN BERNARDINO CLEAR     64  55  72 CALM      30.05R
RIVERSIDE AP   CLEAR     65  56  72 CALM      30.04R
MORENO VALLEY    N/A     64  58  80 CALM      28.17R
MARCH ARB      CLEAR     65  54  69 W3        30.05R
HORSETHIEF CYN   N/A     63  48  58 CALM      30.04R
PERRIS           N/A     64  55  72 CALM      30.05S
HEMET EAST       N/A     67  40  37 CALM      29.89R
FRENCH VALLEY  FAIR      63  50  63 CALM      30.06R
TEMECULA         N/A     62  57  83 CALM      30.11R

$$

SAN BERNARDINO AND RIVERSIDE COUNTY MOUNTAINS

CITY           SKY/WX    TMP DP  RH WIND       PRES   REMARKS
BIG BEAR AP    CLEAR     43  34  70 CALM      30.36R
PINE COVE        N/A     65  42  42 N2        29.96S

$$

SOUTHERN DESERT INCLUDING THE COACHELLA VALLEY

CITY           SKY/WX    TMP DP  RH WIND       PRES   REMARKS
PALM SPRINGS   CLEAR     82  50  32 CALM      29.93R
THOUSAND PALMS   N/A     88  46  22 NW13      29.88R
PALM DESERT      N/A     78  55  44 CALM      29.81
THERMAL        CLEAR     78  48  34 NW3       29.87R
BLYTHE         CLEAR     80  55  42 N3        29.91R
IMPERIAL AP    CLEAR     82  45  27 SE5       29.89R
EL CENTRO NAS  CLEAR     76  48  37 E3        29.91R
YUMA AZ        CLEAR     82  74  76 S14       29.92
MEXICALI       CLEAR     77  68  73 SE6       29.91

$$

UPPER DESERT

CITY           SKY/WX    TMP DP  RH WIND       PRES   REMARKS
VICTORVILLE AP CLEAR     68  39  34 CALM      30.10S
HESPERIA         N/A     65  45  47 W2        30.07R
PALMDALE       CLEAR     68  43  40 SW9       30.09R
LANCASTER      CLEAR     75  44  33 W15       30.07R
EDWARDS AFB    CLEAR     70  43  38 SW10      30.04R
DAGGETT        CLEAR     74  41  30 SW8       30.04R
29 PALMS N     CLEAR     76  39  26 W5        30.10R
NEEDLES        SUNNY     82  61  48 SW5       29.94R

$$

REGIONAL REPORTS

CITY           SKY/WX    TMP DP  RH WIND       PRES   REMARKS
SANTA BARBARA  CLEAR     56  55  97 CALM      30.02R
SANDBERG       CLEAR     69  40  34 N15G25    30.22R
LAS VEGAS NV   CLEAR     78  55  44 SW3       30.00R
PHOENIX AZ     MOSUNNY   81  60  48 E6        29.99R
TIJUANA        CLOUDY    64  59  82 N5        30.06R FOG
ENSENADA NW      N/A     65  32  29 CALM      29.97R

$$

OFFSHORE ISLANDS

CITY           SKY/WX    TMP DP  RH WIND       PRES   REMARKS
CATALINA ARPT  CLEAR     65  55  70 E5        30.07R
SAN CLEMENTE I MOCLDY    64  59  82 W10       30.05
SAN NICOLAS IS CLOUDY    61  55  81 NW20      30.05R HAZE

$$

MARINE AND OFFSHORE BUOY REPORTS

STATION/POSITION SKY/WX   TEMP    WIND        PRES    SWELL
                          AIR SEA DIR/SP/G            HT/PER/DIR
                          (F)     (DEG/KT/KT) (MB)    (FT/S/D)

$$




USA.gov is the U.S. government's official web portal to all federal, state and local government web resources and services.